FW0074 Weather Reports


Display with metric or nautical units.
time (UTC)temp
F
wind
direction
speed
MPH
gust
MPH
rain 1hr
in
rain 24hr
in
rain mn
in
humidity
%
barometer
mb
20260906211016 84 135 10.0 15.0 0.00 0.00 0.00 44 1019.3
20260906210016 84 113 10.0 14.0 0.00 0.00 0.00 42 1019.2
20260906205016 85 113 11.0 15.0 0.00 0.00 0.00 42 1019.4
20260906204036 84 135 7.0 14.0 0.00 0.00 0.00 42 1019.1
20260906203016 84 113 6.0 12.0 0.00 0.00 0.00 40 1019.3
20260906202016 84 135 9.0 14.0 0.00 0.00 0.00 42 1019.5
20260906201016 84 135 10.0 15.0 0.00 0.00 0.00 43 1019.5
20260906200016 84 113 8.0 12.0 0.00 0.00 0.00 42 1019.6
20260906195016 84 135 10.0 13.0 0.00 0.00 0.00 43 1019.8
20260906194016 83 90 9.0 12.0 0.00 0.00 0.00 43 1019.6
20260906193017 82 113 7.0 11.0 0.00 0.00 0.00 45 1019.5
20260906192016 82 135 8.0 16.0 0.00 0.00 0.00 47 1019.4
20260906191016 81 113 7.0 11.0 0.00 0.00 0.00 48 1019.6
20260906190016 81 135 8.0 15.0 0.00 0.00 0.00 48 1019.8
20260906185036 80 90 6.0 10.0 0.00 0.00 0.00 47 1019.5
20260906184016 80 90 6.0 13.0 0.00 0.00 0.00 49 1019.6
20260906183016 80 135 7.0 12.0 0.00 0.00 0.00 50 1019.9
20260906182016 80 135 6.0 11.0 0.00 0.00 0.00 48 1020.7
20260906181016 80 135 5.0 10.0 0.00 0.00 0.00 50 1020.7
20260906180016 79 135 6.0 13.0 0.00 0.00 0.00 49 1020.4
20260906175016 79 135 6.0 9.0 0.00 0.00 0.00 49 1020.6
20260906174016 79 90 6.0 12.0 0.00 0.00 0.00 50 1020.6
20260906173036 78 113 5.0 9.0 0.00 0.00 0.00 50 1020.7
20260906172016 78 90 4.0 9.0 0.00 0.00 0.00 51 1020.7
20260906171036 77 135 4.0 10.0 0.00 0.00 0.00 53 1020.8
20260906170016 76 113 3.0 6.0 0.00 0.00 0.00 55 1020.3
20260906165056 75 158 3.0 6.0 0.00 0.00 0.00 58 1021.0
20260906164016 74 135 4.0 9.0 0.00 0.00 0.00 61 1020.6
20260906163016 73 180 2.0 8.0 0.00 0.00 0.00 64 1020.7
20260906162016 72 180 5.0 8.0 0.00 0.00 0.00 65 1021.1
20260906161016 71 135 6.0 9.0 0.00 0.00 0.00 67 1020.8
20260906160016 71 158 6.0 11.0 0.00 0.00 0.00 68 1020.9
20260906155016 70 113 8.0 11.0 0.00 0.00 0.00 69 1020.4
20260906154016 69 135 7.0 11.0 0.00 0.00 0.00 70 1020.3
20260906153016 68 135 7.0 11.0 0.00 0.00 0.00 72 1020.0
20260906152016 68 135 9.0 14.0 0.00 0.00 0.00 71 1021.1
20260906151016 68 135 10.0 13.0 0.00 0.00 0.00 72 1021.1
20260906150016 68 135 7.0 12.0 0.00 0.00 0.00 72 1021.3
20260906145016 67 135 7.0 12.0 0.00 0.00 0.00 73 1021.9
20260906144016 67 135 7.0 12.0 0.00 0.00 0.00 74 1021.8
20260906143016 66 158 7.0 12.0 0.00 0.00 0.00 75 1021.6
20260906142016 65 180 7.0 12.0 0.00 0.00 0.00 76 1020.9
20260906141016 64 180 6.0 12.0 0.00 0.00 0.00 78 1020.9
20260906140016 63 180 7.0 12.0 0.00 0.00 0.00 78 1020.4
20260906135018 63 180 4.0 10.0 0.00 0.00 0.00 79 1021.4
20260906134018 62 180 4.0 7.0 0.00 0.00 0.00 82 1020.9
20260906133018 61 180 3.0 6.0 0.00 0.00 0.00 86 1021.0
20260906132017 59 203 2.0 4.0 0.00 0.00 0.00 88 1021.3
20260906131058 58 180 2.0 6.0 0.00 0.00 0.00 89 1020.8
20260906130038 57 180 2.0 5.0 0.00 0.00 0.00 87 1020.7
20260906125017 57 180 3.0 6.0 0.00 0.00 0.00 86 1021.0
20260906124018 57 180 4.0 8.0 0.00 0.00 0.00 87 1020.8
20260906123037 57 180 4.0 8.0 0.00 0.00 0.00 89 1020.8
20260906122018 57 180 2.0 4.0 0.00 0.00 0.00 89 1020.7
20260906121018 57 203 3.0 5.0 0.00 0.00 0.00 88 1020.8
20260906120037 57 203 3.0 5.0 0.00 0.00 0.00 88 1020.7
20260906115017 57 203 3.0 5.0 0.00 0.00 0.00 88 1020.7
20260906114017 57 203 3.0 5.0 0.00 0.00 0.00 87 1020.5
20260906113019 58 203 2.0 4.0 0.00 0.00 0.00 87 1020.7
20260906112018 59 180 1.0 4.0 0.00 0.00 0.00 86 1021.1
20260906111018 60 158 6.0 11.0 0.00 0.00 0.00 86 1021.1
20260906110018 61 158 4.0 7.0 0.00 0.00 0.00 85 1021.7
20260906105017 61 158 5.0 9.0 0.00 0.00 0.00 84 1022.1
20260906104118 62 158 3.0 6.0 0.00 0.00 0.00 84 1022.3
20260906103037 62 158 4.0 9.0 0.00 0.00 0.00 83 1022.2
20260906102037 62 135 6.0 9.0 0.00 0.00 0.00 84 1022.1
20260906101018 62 135 4.0 9.0 0.00 0.00 0.00 85 1022.2
20260906100038 62 180 5.0 9.0 0.00 0.00 0.00 85 1022.3
20260906095018 62 158 3.0 9.0 0.00 0.00 0.00 85 1022.1
20260906094037 62 158 4.0 7.0 0.00 0.00 0.00 85 1022.1
20260906093017 62 158 4.0 7.0 0.00 0.00 0.00 85 1022.0
20260906092017 62 135 3.0 6.0 0.00 0.00 0.00 85 1021.7
20260906091017 62 158 3.0 7.0 0.00 0.00 0.00 85 1021.7
20260906090017 61 180 3.0 5.0 0.00 0.00 0.00 85 1021.5
20260906085017 61 180 2.0 5.0 0.00 0.00 0.00 85 1022.0
20260906084017 60 180 2.0 4.0 0.00 0.00 0.00 85 1022.1
20260906083017 60 0.0 2.0 0.00 0.00 0.00 84 1022.3
20260906082018 59 203 2.0 3.0 0.00 0.00 0.00 85 1021.9
20260906081017 58 203 2.0 4.0 0.00 0.00 0.00 85 1021.9
20260906080037 58 225 3.0 4.0 0.00 0.00 0.00 81 1021.9
20260906075017 59 248 2.0 2.0 0.00 0.00 0.00 83 1021.3
20260906074017 59 248 2.0 4.0 0.00 0.00 0.00 82 1021.4
20260906073017 59 225 2.0 4.0 0.00 0.00 0.00 83 1021.6
20260906072017 59 225 3.0 5.0 0.00 0.00 0.00 83 1021.4
20260906071018 58 248 4.0 7.0 0.00 0.00 0.00 86 1021.4
20260906070037 58 248 3.0 4.0 0.00 0.00 0.00 85 1021.2
20260906065017 57 293 3.0 6.0 0.00 0.00 0.00 86 1020.6
20260906064017 56 225 2.0 3.0 0.00 0.00 0.00 86 1020.5
20260906063017 57 225 1.0 3.0 0.00 0.00 0.00 85 1020.3
20260906062037 58 203 2.0 3.0 0.00 0.00 0.00 84 1020.8
20260906061037 60 203 2.0 3.0 0.00 0.00 0.00 84 1021.3
20260906060017 60 0.0 0.0 0.00 0.00 0.00 85 1021.4
20260906055017 60 135 1.0 4.0 0.00 0.00 0.00 86 1021.1
20260906054017 59 0.0 1.0 0.00 0.00 0.00 85 1020.9
20260906053017 60 45 3.0 4.0 0.00 0.00 0.00 84 1020.9
20260906052157 60 0.0 1.0 0.00 0.00 0.00 82 1020.8
20260906051037 61 90 2.0 4.0 0.00 0.00 0.00 80 1021.0
20260906050017 61 68 4.0 7.0 0.00 0.00 0.00 80 1021.0
20260906045017 62 45 4.0 6.0 0.00 0.00 0.00 76 1021.0
20260906044017 62 68 3.0 4.0 0.00 0.00 0.00 76 1020.8
20260906043017 63 68 3.0 5.0 0.00 0.00 0.00 72 1020.8
20260906042017 63 68 2.0 3.0 0.00 0.00 0.00 64 1021.2
20260906041017 65 68 3.0 4.0 0.00 0.00 0.00 59 1021.5
20260906040017 66 23 3.0 10.0 0.00 0.00 0.00 55 1021.3
20260906035017 66 90 3.0 5.0 0.00 0.00 0.00 54 1020.8
20260906034017 64 90 3.0 11.0 0.00 0.00 0.00 52 1020.1
20260906033017 65 293 2.0 3.0 0.00 0.00 0.00 49 1019.8
20260906032017 67 293 4.0 6.0 0.00 0.00 0.00 46 1019.7
20260906031017 69 68 2.0 3.0 0.00 0.00 0.00 49 1020.2
20260906030017 71 45 3.0 5.0 0.00 0.00 0.00 45 1020.5
20260906025017 72 0 1.0 2.0 0.00 0.00 0.00 39 1019.9
20260906024017 75 315 2.0 4.0 0.00 0.00 0.00 36 1020.3
20260906023017 76 293 1.0 2.0 0.00 0.00 0.00 42 1021.0
20260906022037 77 315 2.0 4.0 0.00 0.00 0.00 35 1020.4
20260906021016 77 90 5.0 9.0 0.00 0.00 0.00 35 1020.3
20260906020017 74 113 4.0 8.0 0.00 0.00 0.00 40 1019.6
20260906015017 74 293 5.0 8.0 0.00 0.00 0.00 37 1018.3
20260906014036 75 293 5.0 7.0 0.00 0.00 0.00 36 1018.6
20260906013018 76 293 6.0 8.0 0.00 0.00 0.00 35 1018.6
20260906012117 78 293 8.0 11.0 0.00 0.00 0.00 33 1018.6
20260906011016 79 338 1.0 2.0 0.00 0.00 0.00 35 1018.8
20260906010017 80 338 2.0 3.0 0.00 0.00 0.00 34 1019.3
20260906005017 82 338 2.0 3.0 0.00 0.00 0.00 32 1018.6
20260906004017 84 338 3.0 5.0 0.00 0.00 0.00 29 1019.0
20260906003016 84 23 3.0 6.0 0.00 0.00 0.00 29 1018.9
20260906002037 82 23 3.0 4.0 0.00 0.00 0.00 30 1018.5
20260906001056 83 0 2.0 3.0 0.00 0.00 0.00 29 1018.5
20260906000017 83 0 3.0 5.0 0.00 0.00 0.00 28 1018.5
20260905235016 84 23 3.0 5.0 0.00 0.00 0.00 27 1018.5
20260905234017 84 338 5.0 9.0 0.00 0.00 0.00 27 1018.4
20260905233016 84 338 3.0 6.0 0.00 0.00 0.00 27 1018.4
20260905232016 85 0 5.0 9.0 0.00 0.00 0.00 27 1018.6
20260905231017 84 45 5.0 11.0 0.00 0.00 0.00 27 1018.8
20260905230016 85 68 5.0 12.0 0.00 0.00 0.00 26 1018.9
20260905225016 85 0 2.0 4.0 0.00 0.00 0.00 26 1018.3
20260905224016 86 68 6.0 12.0 0.00 0.00 0.00 26 1018.3
20260905223016 86 68 8.0 13.0 0.00 0.00 0.00 26 1018.2
20260905222017 87 68 6.0 11.0 0.00 0.00 0.00 25 1018.9
20260905221036 88 45 10.0 16.0 0.00 0.00 0.00 25 1019.0
20260905220016 88 23 8.0 13.0 0.00 0.00 0.00 24 1019.0
20260905215016 87 45 6.0 13.0 0.00 0.00 0.00 24 1019.4
20260905214036 88 45 8.0 13.0 0.00 0.00 0.00 24 1019.6
20260905213036 88 68 9.0 16.0 0.00 0.00 0.00 23 1019.6
20260905212017 87 45 11.0 16.0 0.00 0.00 0.00 24 1020.0